Location: Brotuna
(46.2000°N, 22.6000°E)
Time: 23:10:05
(UTC+00:00)

Cosmos 1814 Rocket - Pass Details

Date: 09 April 2020
Orbit: 745 x 787 km, 74.1° (Epoch: 29 May)

Event Time Altitude Azimuth Distance (km) Brightness Sun altitude
Rises 19:58:17 0° 339° (NNW) 3,289 8.4 -26.0°
Reaches altitude 10° 20:00:41 10° 340° (NNW) 2,358 7.4 -26.3°
Enters shadow 20:05:58 80° 50° (NE) 806 4.0 -26.9°
